Location: Unspecified
(0.0000°N, 0.0000°E)
Time: 09:25:20
(UTC+00:00)

deb Midas III - Pass Details

Date: 15 March 2026
Orbit: 3314 x 3545 km, 91.1° (Epoch: 19 April)

Event Time Altitude Azimuth Distance (km) Brightness Sun altitude
Rises 00:22:40 0° 155° (SSE) 7,608 ? -85.9°
Reaches altitude 10° 00:27:40 10° 147° (SSE) 6,568 ? -84.9°
Enters shadow 00:31:00 17° 140° (SE) 5,921 ? -84.1°
Exits shadow 00:57:36 15° 23° (NNE) 5,997 ? -77.7°
Drops below altitude 10° 00:59:40 10° 19° (NNE) 6,414 ? -77.2°
Sets 01:04:16 0° 12° (NNE) 7,416 ? -76.0°
